Wind_Speed
43 43 44 44 44 44 45 45 45 45 45 45 45 45 45 44 44 43 43 43 42 42 41 40 40 39 39 38 38 38 37 37 37 36 36 36 36 36 36 36 35 35 36
45 45 46 46 46 47 47 48 48 48 49 48 48 48 48 48 47 47 46 46 45 45 43 43 43 42 41 41 41 40 39 39 39 39 38 38 37 37 37 37 37 37 37
46 47 47 47 48 49 49 50 50 50 50 50 50 50 50 50 50 50 49 48 48 47 46 46 46 44 43 43 42 42 42 41 40 40 40 39 39 39 38 38 38 38 39
47 48 48 49 49 50 51 52 52 53 53 53 53 53 53 53 52 52 51 50 50 49 48 48 47 46 46 45 44 43 42 42 42 42 41 41 41 41 40 40 39 39 40
48 49 50 50 51 52 53 54 54 54 55 55 55 55 54 55 54 54 53 52 52 51 50 49 49 48 47 47 46 45 44 44 44 43 43 42 42 42 41 41 41 41 41
49 50 51 51 52 53 54 55 55 56 57 57 56 56 56 56 56 56 56 54 54 53 52 52 50 50 49 49 48 47 46 45 45 45 44 43 43 43 43 43 43 42 42
50 51 52 53 54 55 56 57 57 57 58 59 59 59 59 59 59 58 57 56 55 55 54 54 53 52 52 51 51 50 48 47 47 46 45 44 44 44 45 45 44 44 43
52 52 54 55 56 56 57 58 59 59 59 60 61 61 61 60 59 59 58 58 57 57 56 56 56 55 55 53 52 51 50 49 48 47 46 45 45 46 45 45 45 45 44
54 55 56 57 58 59 59 60 61 61 61 61 62 63 63 62 61 61 61 60 59 59 58 57 58 58 57 56 54 53 52 50 49 48 47 46 47 46 46 45 46 46 45
56 57 58 59 60 61 61 61 62 62 62 62 62 63 64 64 64 62 62 62 61 61 60 59 60 59 58 57 56 55 53 52 50 49 49 47 48 46 45 45 44 45 45
58 59 60 60 61 62 62 62 63 63 63 63 63 63 63 64 65 65 64 63 62 61 60 59 60 60 58 57 57 56 54 52 51 50 49 49 48 46 46 45 44 44 44
60 61 61 61 62 63 63 63 63 64 64 64 64 64 64 64 64 64 64 63 61 59 58 57 58 58 57 57 56 56 55 54 52 50 50 50 49 48 48 46 45 45 46
61 62 62 62 62 63 63 63 64 64 64 63 62 62 62 61 61 61 62 60 59 58 56 55 55 56 56 55 56 56 55 54 52 50 50 49 49 48 47 45 45 45 45
62 63 63 62 62 62 62 62 62 62 61 61 59 59 58 57 58 58 58 58 57 56 55 53 53 53 54 54 54 54 54 53 51 49 49 49 48 47 46 45 45 45 45
62 62 62 61 61 61 61 60 60 59 58 56 55 55 55 54 54 55 55 55 55 54 52 51 51 50 51 51 51 50 49 49 49 48 48 48 48 48 47 45 45 45 45
61 61 60 59 59 59 59 58 56 55 55 54 53 52 51 51 51 51 51 51 51 50 49 48 49 48 48 48 48 47 47 47 46 46 46 46 46 47 46 45 46 44 44
59 59 58 57 57 57 56 54 53 53 52 51 50 49 47 47 47 47 47 46 46 46 46 45 45 45 46 44 43 43 44 45 44 44 44 44 43 43 43 43 43 43 43
57 57 56 55 54 53 52 51 50 49 49 47 46 45 44 44 43 43 42 43 42 43 42 41 42 41 42 41 40 40 41 42 42 41 41 41 40 40 40 39 39 41 41
55 54 53 52 51 50 50 48 47 46 45 44 43 43 42 42 41 40 39 38 39 39 39 39 39 39 38 38 39 38 39 39 40 39 39 39 39 39 37 36 37 37 37
52 51 49 49 48 47 46 45 44 42 41 41 40 40 40 40 38 37 35 35 35 35 36 37 37 35 36 36 37 36 35 37 38 37 36 36 36 35 34 33 34 34 35
49 48 47 45 44 44 43 42 41 40 39 38 37 37 37 36 35 34 34 33 33 33 34 35 34 33 33 34 34 34 35 35 35 35 34 34 32 32 31 31 32 33 34
46 45 43 43 42 41 40 40 40 39 37 36 35 34 34 34 34 33 33 33 32 32 32 32 32 32 31 31 33 33 33 34 33 33 32 31 31 31 32 32 32 34 33
43 41 40 39 38 37 37 37 37 35 34 32 32 30 30 31 31 31 31 31 31 30 30 31 31 31 31 30 30 30 32 31 29 28 29 29 29 29 30 31 33 33 32
39 38 37 36 35 34 34 33 33 32 30 30 30 28 27 28 29 29 30 29 29 29 30 29 28 28 29 28 27 28 29 28 27 27 27 27 27 28 28 29 30 29 29
36 35 33 33 32 31 30 29 29 28 27 26 26 25 24 25 27 27 28 27 27 27 27 27 28 27 27 28 28 28 27 26 26 25 25 25 26 27 28 27 27 28 28
33 32 31 30 28 26 26 25 25 25 25 24 24 24 23 24 25 26 26 25 25 24 24 25 26 27 27 27 26 26 26 25 24 23 23 23 25 26 25 25 25 26 26
Wind_Direction
269 269 269 269 269 270 270 270 270 270 270 271 271 271 269 269 269 269 269 269 269 269 268 268 269 270 270 271 272 273 274 275 276 277 279 281 283 285 286 285 286 288 291
270 270 270 270 269 269 270 270 270 270 270 270 270 270 270 269 269 269 269 269 269 269 268 268 268 269 269 270 270 271 273 274 275 276 278 280 282 284 285 285 286 288 289
271 271 271 270 270 270 270 270 270 270 270 269 269 269 269 268 268 268 268 268 268 268 268 268 268 268 268 269 269 270 272 274 274 276 277 278 280 281 284 285 285 286 288
273 272 272 272 271 271 271 271 270 270 269 269 268 268 268 268 268 268 267 267 267 266 266 267 267 267 267 268 268 269 270 272 273 275 276 277 278 280 283 284 284 286 287
273 273 273 273 273 273 272 272 271 271 269 269 268 268 267 267 267 267 266 265 266 265 264 265 265 265 265 266 267 267 268 270 272 274 274 276 277 279 281 282 283 285 287
274 274 274 274 275 274 274 273 272 271 270 269 268 268 267 268 267 267 266 265 265 265 263 263 264 264 263 265 265 266 267 269 270 272 273 274 275 277 279 281 282 284 286
276 276 276 276 276 276 276 274 273 272 271 270 269 268 267 268 268 267 265 264 265 264 263 262 262 263 263 263 264 264 265 267 269 270 272 273 274 275 277 280 281 283 284
278 277 277 277 277 277 277 276 275 274 272 271 270 269 268 267 266 265 264 263 263 263 263 262 262 262 262 262 262 263 263 265 267 269 270 271 273 275 277 278 280 282 282
279 278 280 279 278 277 278 278 276 275 273 272 271 271 269 266 264 264 264 263 262 262 262 262 262 261 260 260 261 261 262 263 264 266 267 269 271 272 275 277 278 281 283
281 281 281 281 280 279 278 278 277 276 274 272 271 271 270 268 265 263 262 261 261 262 261 261 261 260 259 259 260 260 260 260 261 263 265 267 268 271 274 276 278 280 282
282 282 282 282 282 280 279 279 278 276 275 274 272 270 270 269 268 266 263 261 260 261 260 260 260 259 258 258 259 258 258 258 258 260 262 265 266 268 271 274 276 279 281
283 283 283 282 282 281 281 280 279 277 276 274 272 270 269 269 268 266 264 261 260 259 259 258 257 256 256 256 257 256 256 256 257 258 260 262 264 266 268 271 274 277 280
284 284 283 283 282 282 281 280 279 278 276 274 272 270 269 268 267 265 263 261 259 258 258 257 255 255 254 254 255 255 255 255 256 257 258 260 263 265 268 270 273 276 279
284 284 284 283 282 282 281 280 280 278 275 273 271 269 268 267 266 264 263 261 260 258 257 254 253 254 253 253 255 255 255 255 255 256 258 259 261 263 266 268 272 274 277
285 285 284 283 282 282 280 279 279 277 274 272 270 269 268 267 266 264 262 261 260 259 255 252 250 251 251 251 254 256 255 255 254 255 257 259 260 262 265 267 268 270 274
285 284 284 282 281 282 280 278 277 276 274 271 269 268 267 266 265 264 261 260 259 258 255 250 247 249 249 251 252 254 254 253 253 253 256 258 259 260 264 265 267 269 274
286 285 283 282 281 281 279 277 275 274 272 271 269 267 265 265 264 263 261 258 257 256 255 249 245 245 246 248 249 252 251 252 251 253 255 257 258 261 263 265 267 269 273
287 285 283 282 280 279 277 276 275 273 271 271 267 264 263 263 264 262 260 256 255 253 252 246 242 242 243 245 249 251 250 250 249 253 255 255 256 259 263 265 269 271 273
286 285 283 281 280 278 277 275 273 271 269 268 265 262 261 262 261 260 257 253 251 249 249 246 240 241 242 245 246 250 250 249 251 253 255 256 255 259 263 266 270 272 275
286 284 282 281 279 278 276 273 271 269 268 266 265 262 259 259 258 256 253 249 246 246 245 241 238 241 243 244 246 248 249 249 250 253 255 255 257 259 262 266 270 273 276
287 284 282 281 279 278 275 271 268 267 266 265 263 259 256 256 255 253 248 244 242 242 240 238 238 239 241 243 244 246 248 249 249 250 253 256 257 258 261 265 270 274 276
286 284 282 280 278 277 275 270 267 264 263 261 260 256 253 254 253 248 243 240 239 238 239 238 238 238 239 242 242 244 246 246 247 249 250 252 254 259 262 265 269 275 276
287 284 280 278 277 276 272 269 266 263 260 259 256 251 250 251 249 244 239 236 234 236 237 236 236 237 238 240 241 243 244 243 244 247 248 250 254 259 263 267 272 275 275
287 282 280 277 276 276 272 267 263 259 257 255 250 247 249 246 244 239 233 231 233 234 235 234 234 236 238 240 244 244 241 241 241 244 247 249 253 257 262 268 274 276 278
286 283 280 278 276 272 267 263 258 255 253 248 243 243 242 238 238 235 232 230 230 231 230 231 232 236 239 240 240 239 238 240 241 243 246 248 253 260 264 270 274 276 279
284 281 279 277 274 268 263 260 256 253 247 242 239 239 237 236 236 233 229 228 228 227 228 230 233 236 237 237 237 237 237 240 240 241 245 250 258 262 267 271 274 276 280
Height
5783 5783 5783 5783 5783 5783 5783 5783 5783 5783 5783 5783 5783 5784 5784 5784 5785 5785 5785 5786 5786 5786 5786 5787 5787 5787 5787 5787 5787 5787 5786 5786 5785 5784 5783 5782 5781 5779 5778 5777 5775 5773 5771
5773 5773 5773 5773 5773 5773 5773 5773 5773 5773 5773 5773 5773 5773 5774 5774 5774 5775 5775 5776 5776 5776 5777 5777 5778 5778 5778 5778 5778 5778 5778 5778 5777 5776 5775 5774 5773 5772 5771 5769 5768 5766 5764
5763 5763 5762 5762 5762 5762 5762 5761 5761 5761 5762 5762 5762 5762 5762 5763 5763 5764 5764 5765 5766 5766 5766 5767 5768 5768 5769 5769 5769 5769 5769 5769 5768 5768 5767 5766 5765 5764 5762 5761 5759 5758 5756
5752 5751 5751 5751 5751 5750 5749 5749 5749 5749 5749 5749 5749 5750 5750 5751 5752 5752 5752 5754 5754 5755 5756 5757 5758 5758 5759 5759 5759 5760 5760 5759 5759 5759 5758 5757 5756 5755 5754 5752 5751 5749 5747
5740 5740 5739 5739 5738 5738 5737 5736 5736 5735 5735 5736 5736 5737 5737 5738 5739 5739 5740 5741 5742 5743 5744 5745 5746 5747 5748 5748 5749 5749 5750 5750 5750 5750 5749 5748 5747 5746 5745 5744 5742 5740 5738
5728 5727 5726 5726 5725 5724 5723 5722 5722 5721 5721 5721 5721 5723 5723 5724 5725 5726 5726 5727 5728 5730 5731 5733 5734 5735 5737 5737 5738 5738 5739 5739 5740 5740 5739 5739 5738 5737 5736 5735 5733 5731 5729
5715 5714 5713 5712 5711 5710 5709 5708 5707 5707 5706 5705 5706 5708 5709 5709 5710 5711 5712 5713 5715 5716 5717 5719 5721 5722 5724 5725 5726 5727 5728 5728 5729 5729 5730 5729 5729 5728 5726 5725 5724 5722 5720
5702 5700 5699 5698 5697 5696 5694 5692 5691 5691 5691 5689 5689 5690 5693 5695 5695 5696 5697 5698 5700 5701 5703 5704 5706 5708 5710 5711 5713 5714 5716 5716 5717 5718 5719 5719 5718 5717 5716 5715 5714 5712 5710
5688 5686 5685 5683 5681 5680 5678 5676 5675 5674 5674 5673 5672 5672 5674 5677 5679 5681 5681 5682 5684 5685 5687 5689 5691 5693 5695 5696 5698 5701 5702 5704 5705 5707 5707 5707 5707 5707 5706 5705 5704 5702 5700
5674 5672 5669 5667 5666 5663 5662 5660 5658 5657 5656 5656 5655 5654 5654 5656 5659 5663 5665 5665 5667 5669 5671 5673 5675 5677 5679 5681 5684 5687 5689 5691 5693 5694 5695 5695 5695 5695 5695 5694 5693 5692 5690
5659 5656 5654 5651 5649 5646 5644 5642 5640 5639 5638 5638 5637 5637 5636 5637 5638 5641 5646 5649 5650 5652 5654 5656 5658 5660 5663 5666 5669 5672 5675 5677 5679 5681 5682 5683 5684 5684 5684 5683 5682 5681 5680
5644 5640 5637 5634 5632 5629 5627 5625 5623 5621 5619 5619 5618 5618 5618 5619 5620 5621 5625 5629 5632 5635 5637 5638 5641 5644 5647 5651 5654 5657 5660 5663 5665 5667 5669 5671 5672 5672 5672 5672 5671 5670 5669
5627 5624 5621 5618 5615 5612 5609 5607 5605 5603 5601 5600 5600 5600 5599 5600 5601 5603 5605 5609 5613 5618 5620 5623 5625 5628 5631 5635 5639 5642 5646 5648 5651 5654 5656 5658 5659 5660 5660 5660 5660 5659 5658
5610 5607 5603 5600 5597 5594 5591 5589 5586 5585 5583 5582 5582 5582 5582 5583 5584 5585 5588 5591 5595 5600 5604 5607 5610 5613 5616 5621 5624 5627 5631 5635 5638 5640 5643 5645 5646 5648 5648 5648 5648 5648 5647
5592 5589 5585 5582 5580 5576 5573 5571 5569 5568 5566 5565 5565 5565 5565 5566 5567 5569 5571 5574 5578 5582 5589 5592 5596 5599 5602 5607 5610 5613 5617 5621 5624 5627 5630 5632 5634 5635 5636 5636 5636 5636 5635
5574 5571 5568 5565 5562 5560 5557 5554 5553 5551 5550 5550 5549 5550 5550 5551 5552 5554 5556 5559 5562 5566 5572 5578 5582 5586 5589 5593 5597 5601 5605 5609 5611 5614 5616 5619 5621 5623 5624 5624 5624 5624 5624
5557 5554 5551 5548 5546 5543 5540 5538 5537 5536 5535 5535 5535 5535 5536 5537 5539 5540 5543 5546 5549 5552 5558 5565 5569 5573 5577 5582 5586 5589 5592 5596 5600 5602 5605 5607 5610 5611 5612 5613 5613 5613 5613
5541 5537 5534 5532 5529 5527 5524 5523 5522 5520 5520 5520 5521 5521 5523 5524 5526 5528 5530 5534 5537 5541 5545 5552 5557 5561 5566 5570 5574 5577 5581 5584 5588 5591 5594 5596 5598 5600 5601 5602 5602 5602 5603
5525 5521 5518 5516 5514 5511 5509 5508 5506 5506 5507 5507 5508 5509 5511 5512 5515 5517 5519 5523 5527 5530 5535 5540 5546 5551 5555 5559 5563 5567 5570 5574 5577 5580 5583 5585 5588 5590 5591 5592 5593 5593 5593
5510 5507 5503 5501 5499 5497 5495 5494 5493 5493 5494 5495 5496 5498 5499 5501 5503 5506 5509 5513 5517 5521 5525 5530 5536 5541 5546 5549 5553 5557 5561 5564 5568 5571 5573 5576 5578 5580 5582 5583 5584 5583 5583
5495 5492 5490 5487 5485 5484 5482 5481 5481 5482 5483 5484 5486 5487 5489 5491 5493 5496 5500 5504 5508 5512 5517 5522 5527 5532 5536 5540 5545 5548 5552 5556 5559 5561 5564 5567 5570 5572 5573 5574 5574 5574 5574
5482 5479 5476 5475 5473 5472 5471 5469 5470 5471 5473 5474 5476 5478 5479 5482 5484 5487 5491 5496 5500 5504 5509 5514 5519 5524 5529 5533 5536 5540 5544 5547 5551 5554 5556 5559 5561 5563 5565 5566 5566 5566 5565
5469 5466 5464 5463 5462 5461 5459 5459 5460 5461 5463 5465 5467 5469 5471 5473 5475 5479 5483 5488 5493 5498 5503 5507 5513 5517 5522 5526 5529 5533 5536 5540 5543 5546 5548 5551 5553 5555 5557 5558 5557 5557 5556
5458 5455 5454 5452 5452 5451 5449 5449 5450 5451 5454 5456 5458 5461 5463 5466 5469 5472 5477 5482 5486 5491 5496 5501 5506 5510 5515 5518 5522 5525 5528 5532 5535 5538 5541 5543 5545 5547 5549 5549 5549 5549 5548
5448 5445 5444 5443 5442 5442 5441 5441 5441 5444 5446 5449 5451 5454 5457 5460 5463 5467 5471 5476 5481 5486 5490 5495 5499 5503 5508 5512 5515 5518 5521 5525 5528 5531 5534 5536 5539 5540 5541 5542 5541 5541 5540
5439 5437 5436 5435 5434 5434 5434 5434 5435 5437 5440 5443 5445 5448 5451 5454 5458 5462 5467 5472 5476 5481 5485 5489 5493 5498 5501 5505 5508 5512 5515 5519 5522 5525 5527 5529 5531 5533 5534 5535 5535 5534 5533